Location: Chiroubles
(46.1812°N, 4.6660°E)
Time: 03:25:58
(UTC+00:00)

Tiros 1 - Pass Details

Date: 01 December 2020
Orbit: 630 x 663 km, 48.4° (Epoch: 16 January)

Event Time Altitude Azimuth Distance (km) Brightness Sun altitude
Rises 19:26:04 0° 289° (WNW) 2,988 11.5 -35.4°
Reaches altitude 10° 19:28:29 10° 284° (WNW) 2,069 10.5 -35.8°
Enters shadow 19:30:09 21° 276° (W) 1,476 9.5 -36.1°
